STARLINK-37114, 68561

Orbit data source: Space-Track

STARLINK-37114, 68561 is a payload satellite owned by SpaceX/Seattle (US) in LEO that was launched on Thu, 02 Apr 2026 UTC via an FALCON 9 launch vehicle from the Air Force Eastern Test Range (AFETR). Payload-class satellites include a variety of spacecraft equipped with specific instruments for various scientific and technological missions. These include communications satellites like Starlink; space stations such as the ISS; scientific satellites like the Hubble; Earth observation satellites from companies like Planet Labs, Umbra, and HawkEye 360; GPS; miniature CubeSats for education and research; and military/defense satellites.

Loading next visibility...
Identifier
68561, 2026-070V
Orbit
LEO
Country
Flag of USUS
Related business
Manufacturer
SpaceX/Seattle
Mission
Operational Commercial Communications
Bus & Motor
STARLINK V2MO, Unknown motor
Mass
575 kg wet, ~530 kg dry
Launch date (UTC)
2026-04-02 (5 months ago)
Launch vehicle
FALCON 9
Launch site
Air Force Eastern Test Range (AFETR)
Object type
Payload
Rocket body
Debris
Shape & HBR
Box + 1 Pan, 17.7 m
Radar Cross Section
41.120 m², Large (>1 m²)

Expand to show TLE details & history
Last TLE update: 9 hours ago

TLE from 9 hours ago
0 STARLINK-37114
1 68561U 26070V   26247.04322428  .00010907  00000-0  33351-3 0  9992
2 68561  53.1587 250.4430 0001770  67.1152 293.0037 15.34398013 23918
Epoch: 2026-09-04T01:02Z
TLE epoch observation values (Epoch: 2026-09-04T01:02:14.577Z)
Latitude
-0.00006°
Longitude
-108.2905°
Altitude
463.137 km
Speed
7.636 km/s
True Right ascension
16h 41m 46s
True Declination
0° 00' 00"
Sunlit
Object was in daylight at epoch
Visualization orbit readout
Latitude
Unknown
Longitude
Unknown
Altitude
Unknown
Speed
Unknown
Apparent Right ascension
Unknown
Apparent Declination
Unknown
Sunlit
N/A
Visualization observer readout
Local Sidereal Time
01:36:53
Azimuth
Unknown
Elevation
Unknown
Doppler factor
Unknown
Orbital elements
Apogee altitude
464.177 km
Perigee altitude
461.755 km
Semi-major axis
6,841.103 km
Eccentricity
0.00018
Inclination
53.1587°
RAAN
250.443°
Arg. of periapsis
67.1152°
True anomaly
292.98503°
Mean anomaly
293.0037°
Eccentric anomaly
292.99436°
Mean motion
3.83578 °/min
Orbital period
93.85 mins
BSTAR
0.00033351
Loading maneuver chart data...
Computing Atmospheric mass density...
Loading historical data...
Loading historical data...
Loading historical data...
Loading historical data...
Loading historical data...
Loading historical data...
Loading historical data...

Documentation

Showing up to 5 results
|